sat.trackr.live / text

‹ back to catalog

ONEWEB-0375

NORAD 49301 · 2021-090Y

PAYLOAD ACTIVE UNKNOWN

§ Identity

Operator
Country
UK
Launch date
2021-10-14
Launch site
VOSTO
Launch vehicle
Mass (kg)
RCS (m²)

Purposes: comms

External: N2YO · Heavens-Above · Gunter

§ Orbital elements

Epoch: 2026-09-11T23:50:00.606048Z

Period
109.03 min
Inclination
87.9130°
Eccentricity
0.0002272
Mean motion
13.20772570 rev/d
Perigee alt
1,180.1 km
Apogee alt
1,183.5 km
Semi-major
7,559.9 km
B*
-7.0991e-5
RAAN
257.1185°
Arg perigee
102.7220°
Mean anomaly
257.4167°
Rev number
24,198

§ Raw data

ONEWEB-03751 49301U 21090Y   26254.99306257 -.00000016  00000+0 -70991-4 0  99972 49301  87.9130 257.1185 0002272 102.7220 257.4167 13.20772570241983

JSON: /api/v1/satellites/49301 · /tle

For live sub-satellite position, see the globe view (requires WebGL).

§ Visibility from observer

Set your observer location to see the next 7 days of passes ≥ 10°. The values pass through the URL so the page stays shareable.

No JS? Fill the form by hand. The geolocation button needs JavaScript.